Baton Rouge, LA

11:16 AM CST on November 21, 2019 (GMT -0600)
Baton Rouge Metro-Ryan

Weather History for KBTR - September, 2019

Change the Weather History Date:

Sunday, September 15, 2019

  Actual Average Record
Temperature  
Mean Temperature 84 °F 79 °F  
Max Temperature 94 °F 89 °F 97 °F (1921)
Min Temperature 74 °F 69 °F 49 °F (1902)
Degree Days  
Heating Degree Days 0 0  
Month to date heating degree days 0 0  
Since 1 July heating degree days 0 0  
Cooling Degree Days 19 14  
Month to date cooling degree days 297 234  
Year to date cooling degree days 2635 2395  
Growing Degree Days 33 (Base 50)    
Moisture  
Dew Point 71 °F    
Average Humidity 69    
Maximum Humidity 93    
Minimum Humidity 44    
Precipitation  
Precipitation 0.00 in 0.16 in 1.99 in (1971)
Month to date precipitation 0.64 2.42  
Year to date precipitation 49.85 44.13  
Snow  
Snow 0.00 in - - ()
Month to date snowfall 0.0  
Since 1 July snowfall 0.0  
Since 1 September snowfall 0.0  
Snow Depth 0.00 in    
Sea Level Pressure  
Sea Level Pressure 30.01 in    
Wind  
Wind Speed 7 mph (NE)    
Max Wind Speed 17 mph    
Max Gust Speed 22 mph    
Visibility 10 miles    
Events      
T = Trace of Precipitation, MM = Missing Value Source: NWS Daily Summary

Daily Weather History Graph

Daily Weather History Graph

Search for Another Location

Airport or City:

Astronomy

Sep. 15, 2019 Rise Set
Actual Time 6:48 AM CDT 7:10 PM CDT
Civil Twilight 6:24 AM CDT 7:34 PM CDT
Nautical Twilight 5:56 AM CDT 8:02 PM CDT
Astronomical Twilight 5:27 AM CDT 8:31 PM CDT
Moon 8:22 PM CDT (9/15) 7:57 AM CDT (9/15)
Length of Visible Light 13h 09m
Length of Day
12h 21m
Full, 98% of the Moon is Illuminated
Sep 15
Full
Sep 21
Last Quarter
Sep 28
New
Oct 5
First Quarter
Oct 13
Full

Hourly Weather History & Observations

Time (CDT) Temp. Heat Index Dew Point Humidity Pressure Visibility Wind Dir Wind Speed Gust Speed Precip Events Conditions
12:53 AM 75.9 °F - 72.0 °F 87% 30.05 in 10.0 mi Calm Calm - N/A   Clear
1:53 AM 75.0 °F - 72.0 °F 90% 30.04 in 9.0 mi North 3.5 mph - N/A   Clear
2:53 AM 73.9 °F - 71.1 °F 91% 30.04 in 8.0 mi Calm Calm - N/A   Clear
3:53 AM 75.0 °F - 71.1 °F 87% 30.04 in 10.0 mi North 3.5 mph - N/A   Overcast
4:53 AM 75.0 °F - 71.1 °F 87% 30.03 in 10.0 mi North 5.8 mph - N/A   Partly Cloudy
5:53 AM 75.0 °F - 70.0 °F 84% 30.03 in 10.0 mi NNE 3.5 mph - N/A   Clear
6:53 AM 73.9 °F - 69.1 °F 85% 30.05 in 10.0 mi NE 5.8 mph - N/A   Clear
8:53 AM 79.0 °F - 70.0 °F 74% 30.06 in 10.0 mi ENE 8.1 mph - N/A   Clear
9:53 AM 84.0 °F 89.0 °F 71.1 °F 65% 30.06 in 10.0 mi NE 10.4 mph - N/A   Clear
10:53 AM 87.1 °F 93.6 °F 72.0 °F 61% 30.05 in 10.0 mi East 11.5 mph - N/A   Clear
11:53 AM 89.1 °F 95.0 °F 71.1 °F 55% 30.03 in 10.0 mi East 12.7 mph - N/A   Partly Cloudy
12:53 PM 91.0 °F 95.6 °F 69.1 °F 48% 30.02 in 10.0 mi East 10.4 mph - N/A   Partly Cloudy
1:53 PM 93.0 °F 99.0 °F 70.0 °F 47% 30.00 in 10.0 mi East 10.4 mph - N/A   Clear
2:53 PM 93.9 °F 98.6 °F 68.0 °F 43% 29.97 in 10.0 mi ENE 15.0 mph - N/A   Partly Cloudy
3:53 PM 93.0 °F 97.4 °F 68.0 °F 44% 29.96 in 10.0 mi ENE 13.8 mph - N/A   Clear
4:53 PM 91.9 °F 96.9 °F 69.1 °F 47% 29.96 in 10.0 mi NE 12.7 mph - N/A   Scattered Clouds
5:53 PM 90.0 °F 94.5 °F 69.1 °F 50% 29.97 in 10.0 mi East 9.2 mph - N/A   Clear
6:53 PM 87.1 °F 92.8 °F 71.1 °F 59% 29.97 in 10.0 mi ENE 4.6 mph - N/A   Clear
7:53 PM 82.9 °F 87.5 °F 71.1 °F 67% 29.97 in 10.0 mi NE 4.6 mph - N/A   Clear
8:53 PM 81.0 °F 85.2 °F 72.0 °F 74% 30.00 in 10.0 mi East 3.5 mph - N/A   Clear
9:53 PM 80.1 °F 84.2 °F 73.0 °F 79% 30.01 in 10.0 mi ENE 3.5 mph - N/A   Clear
10:53 PM 79.0 °F - 73.0 °F 82% 30.01 in 10.0 mi NE 3.5 mph - N/A   Clear